Flag for Canada Weather past 2 weeks in Burnaby, British Columbia, Canada

Now
46 °F

Sprinkles. Passing clouds.


Feels Like: 44 °F
Forecast: 44 / 53 °F
Wind: 6 mph from East

Location: Vancouver International Air-Port

Current Time: May 5, 2015 at 4:18:46 AM

Latest Report: May 5, 2015 at 4:00 AM


Visibility: 8 mi

Pressure: 29.94 "Hg

Humidity: 87%

Dew point: 43 °F

Location of BurnabyLocation

Historic Weather in Burnaby — Graph

°F

Burnaby temperature yesterday

Maximum temperature yesterday: 61 °F (at 1:00 PM)
Minimum temperature yesterday: 45 °F (at 4:00 AM)
Average temperature yesterday: 53 °F

Past Weeks' High & Low Weather Summary

 TemperatureHumidityPressure
High64 °F (Apr 27, 4:00 PM)100% (Apr 27, 3:45 AM)30.29 "Hg (Apr 27, 3:45 AM)
Low41 °F (Apr 24, 5:00 AM)31% (Apr 22, 4:00 PM)29.71 "Hg (Apr 24, 5:00 AM)
Average51 °F76%30.02 "Hg
* Reported Apr 20 3:00 AM — May 5 3:04 AM, Burnaby, Weather by CustomWeather, © 2015

Note: Actual official high and low records may vary slightly from our data, if they occured in-between our weather recording intervals... More about our weather records

Advertising

Burnaby weather history for previous 24 hours

 ConditionsComfort  
Time TempWeatherWind HumidityBarometerVisibility
3:04 AM
Tue, May 5
48 °FSprinkles. Mostly cloudy.2 mph76%29.94 "Hg8 mi
2:00 AM48 °FSprinkles. Mostly cloudy.8 mph76%29.93 "Hg8 mi
1:00 AM48 °FMostly cloudy.6 mph76%29.94 "Hg8 mi
12:00 AM50 °FLight rain. Passing clouds.13 mph71%29.93 "Hg15 mi
11:00 PM
Mon, May 4
50 °FPassing clouds.10 mph71%29.92 "Hg15 mi
10:00 PM50 °FPassing clouds.14 mph71%29.91 "Hg15 mi
9:00 PM52 °FScattered clouds.16 mph67%29.90 "Hg15 mi
8:00 PM54 °FBroken clouds.17 mph63%29.91 "Hg15 mi
7:00 PM55 °FBroken clouds.14 mph67%29.91 "Hg15 mi
6:00 PM55 °FBroken clouds.12 mph72%29.91 "Hg15 mi
5:52 PM55 °FBroken clouds.9 mph77%29.91 "Hg15 mi
5:00 PM54 °FSprinkles. Mostly cloudy.9 mph77%29.91 "Hg10 mi
4:00 PM61 °FSprinkles. Broken clouds.9 mph48%29.90 "Hg20 mi
3:00 PM61 °FBroken clouds.6 mph48%29.90 "Hg30 mi
1:00 PM61 °FPartly sunny.6 mph63%29.89 "Hg20 mi
12:00 PM57 °FPartly sunny.9 mph67%29.88 "Hg20 mi
11:00 AM57 °FMostly cloudy.12 mph63%29.86 "Hg20 mi
10:00 AM57 °FPartly sunny.14 mph67%29.85 "Hg30 mi
9:00 AM55 °FPartly sunny.15 mph72%29.85 "Hg30 mi
8:00 AM54 °FPartly sunny.14 mph67%29.84 "Hg30 mi
7:00 AM50 °FPartly sunny.12 mph76%29.84 "Hg30 mi
6:00 AM48 °FMostly cloudy.10 mph76%29.84 "Hg25 mi
5:00 AM46 °FPassing clouds.8 mph76%29.85 "Hg20 mi
4:00 AM45 °FPassing clouds.10 mph81%29.85 "Hg15 mi
Weather by CustomWeather, © 2015

See weather overviewHow to use our weather pages